Weather Roundup
Issued by NWS Chicago, IL

Home | Current Version | Previous Version | Graphics & Text | Print | Product List | Glossary On
Versions: 1 2 3 4 5 6 7 8 9 10 11 12 13 14 15 16 17 18 19 20 21 22 23 24 25 26 27 28 29 30 31 32 33 34 35 36 37 38 39 40 41 42 43 44 45 46 47 48 49 50
000
NZUS59 KLOT 070800
HRRLOT

CHICAGO AREA WEATHER ROUNDUP
NATIONAL WEATHER SERVICE CHICAGO/ROMEOVILLE IL
300 AM CDT TUE JUL 07 2015

NOTE: "FAIR" INDICATES FEW OR NO CLOUDS BELOW 12,000 FEET WITH NO
SIGNIFICANT WEATHER AND/OR OBSTRUCTIONS TO VISIBILITY.

* THESE STATIONS ARE NOT UNDER NWS QUALITY CONTROL. THEY ALSO MAY NOT
  REPORT WEATHER SUCH AS PRECIPITATION OR FOG.

ILZ005-006-012>014-019>023-070900-
NORTHEAST ILLINOIS

CITY           SKY/WX    TMP DP  RH WIND       PRES   REMARKS
OHARE          CLOUDY    71  68  90 SW7       29.83S
MIDWAY         CLOUDY    74  69  85 SW5       29.84F
AURORA         CLOUDY    71  68  90 SW6       29.85S
WAUKEGAN       NOT AVBL
DUPAGE AIRPORT CLOUDY    71  68  90 SW7       29.84S
WHEELING       CLOUDY    72  68  87 W6        29.85R
NORTHERLY IS     N/A     72  68  87 S3          N/A
$$

WIZ051-052-058>065-066-070>072-070900-
SOUTHEAST WISCONSIN

CITY           SKY/WX    TMP DP  RH WIND       PRES   REMARKS
MILWAUKEE      LGT RAIN  59  57  93 N18G26    29.87R FOG
KENOSHA*       RAIN      62  59  90 NE16G29   29.87R FOG
RACINE*        LGT RAIN  60  57  89 N20G29    29.90R FOG
$$

INZ001>003-010>013-019-020-070900-
NORTHWEST INDIANA

CITY           SKY/WX    TMP DP  RH WIND       PRES   REMARKS
GARY*          NOT AVBL
MICHIGAN CITY* NOT AVBL
RENSSELAER*    NOT AVBL
$$

LMZ740>746-070900-
SOUTHERN LAKE MICHIGAN

STATION/POSITION TIME  SKY/WX   TEMP WIND        PRES    VSBY
                                AIR  DIR/SP/G
                 (UTC)          (F)  (DEG/KT/KT) (MB)    (MI)
HARRISON CRIB    0700            71  190/ 13/ 14   N/A
BURNHAM HARBOR   0700            72  210/  4/  8   N/A
CALUMET HARBOR   0700            72  180/  4/  6   N/A
BURNS HARBOR     0700            71  250/  7/ 10 1011.9R
MICHIGAN CITY    0700            69  240/  4/  7   N/A
$$

ABBREVIATIONS USED IN REMARKS
   TC - TEMPERATURE IN CELSIUS
  WCI - WIND CHILL INDEX
   HX - HEAT INDEX
  VSB - VISIBILITY
$$


USA.gov is the U.S. government's official web portal to all federal, state and local government web resources and services.